Weather reports worldwide

Advertisment
Jersey Airport, United Kingdom (3895): temperature & dewpoint: 07.12.2018 09:00:00 - 13.12.2018 09:00:00 (GMT)Jersey Airport, United Kingdom (3895): temperature -20cm & temperature -100cm: 07.12.2018 09:00:00 - 13.12.2018 09:00:00 (GMT)Jersey Airport, United Kingdom (3895): wind speed & gusts: 07.12.2018 09:00:00 - 13.12.2018 09:00:00 (GMT)Jersey Airport, United Kingdom (3895): wind direction: 07.12.2018 09:00:00 - 13.12.2018 09:00:00 (GMT)Jersey Airport, United Kingdom (3895): reduced air pressure: 07.12.2018 09:00:00 - 13.12.2018 09:00:00 (GMT)Jersey Airport, United Kingdom (3895): visibility: 07.12.2018 09:00:00 - 13.12.2018 09:00:00 (GMT)Jersey Airport, United Kingdom (3895): sunshine duration: 07.12.2018 09:00:00 - 13.12.2018 09:00:00 (GMT)Jersey Airport, United Kingdom (3895): precipitation: 07.12.2018 09:00:00 - 13.12.2018 09:00:00 (GMT)
Date & Time tt [°C] td [°C] tt -20cm [°C] tt -100cm [°C] ff [km/h] ff [kn] fx [km/h] fx [kn] dd ppp [hPa] vv [km] sd [min] rr [mm]
13.12.2018 09:00:00 3,4 -1,0 9,9 11,0 34 18 48 26 ESE 1010,3 35 0 0,0
13.12.2018 08:00:00 3,7 -2,4 - - 39 21 52 28 ESE 1009,8 10 0 0,0
13.12.2018 07:00:00 3,6 -1,8 - - 39 21 57 31 ESE 1009,6 30 0 0,0
13.12.2018 06:00:00 3,6 -0,9 - - 42 23 57 31 ESE 1009,7 10 0 0,0
13.12.2018 05:00:00 4,0 -1,0 - - 44 24 59 32 SE 1010,0 10 0 0,0
13.12.2018 04:00:00 3,8 -1,2 - - 41 22 55 30 ESE 1010,0 10 0 0,0
13.12.2018 03:00:00 4,0 -0,9 - - 41 22 61 33 SE 1010,9 10 0 0,0
13.12.2018 02:00:00 4,2 0,1 - - 48 26 63 34 SE 1011,1 10 0 0,0
13.12.2018 01:00:00 4,4 0,2 - - 42 23 57 31 SE 1012,0 26 0 0,0
13.12.2018 00:00:00 4,5 0,3 - - 42 23 54 29 SE 1013,1 10 - 0,0
12.12.2018 23:00:00 4,7 0,4 - - 35 19 54 29 SE 1013,8 10 0 0,0
12.12.2018 22:00:00 4,5 0,5 - - 34 18 52 28 SE 1014,4 10 0 0,0
12.12.2018 21:00:00 4,8 0,3 - - 39 21 52 28 SE 1014,9 10 0 0,0
12.12.2018 20:00:00 4,7 0,3 - - 34 18 54 29 SE 1015,6 45 0 0,0
12.12.2018 19:00:00 4,9 0,6 - - 37 20 50 27 SE 1015,6 10 0 0,0
12.12.2018 18:00:00 5,2 2,1 - - 34 18 48 26 SE 1016,2 10 0 0,0
12.12.2018 17:00:00 5,8 2,1 - - 31 17 - - SE 1017,2 28 0 0,0
12.12.2018 16:00:00 5,9 2,7 - - 22 12 - - SSE 1017,5 10 0 0,0
12.12.2018 15:00:00 6,1 3,1 - - 28 15 46 25 SE 1017,9 10 6 0,0
12.12.2018 14:00:00 6,0 4,0 - - 29 16 - - SE 1018,3 10 0 0,0
12.12.2018 13:00:00 6,3 4,6 - - 26 14 - - SE 1019,0 10 0 0,0
12.12.2018 12:00:00 6,2 4,8 - - 29 16 - - SSE 1019,3 10 0 0,0
12.12.2018 11:00:00 6,1 4,5 - - 24 13 - - SE 1019,9 10 0 0,0
12.12.2018 10:00:00 5,9 4,5 - - 22 12 - - SSE 1020,2 10 0 0,0
12.12.2018 09:00:00 6,0 4,6 10,5 11,2 21 11 - - SSE 1020,3 10 0 0,0
12.12.2018 08:00:00 6,1 5,0 - - 24 13 - - SE 1019,7 10 0 0,0
12.12.2018 07:00:00 5,9 4,7 - - 22 12 - - SSE 1019,9 9 0 0,0
12.12.2018 06:00:00 6,0 4,8 - - 24 13 - - SE 1019,8 10 0 0,0
12.12.2018 05:00:00 5,9 4,7 - - 22 12 - - SE 1019,7 9 0 0,0
12.12.2018 04:00:00 6,1 5,1 - - 24 13 - - SSE 1020,1 10 0 0,0
12.12.2018 03:00:00 6,3 4,9 - - 22 12 - - SE 1020,1 10 0 0,0
12.12.2018 02:00:00 6,5 5,1 - - 29 16 - - SE 1019,8 13 0 0,0
12.12.2018 01:00:00 6,5 5,3 - - 26 14 - - SSE 1020,2 10 0 0,0
12.12.2018 00:00:00 6,3 5,3 - - 26 14 - - SSE 1020,6 10 - 0,0
11.12.2018 23:00:00 6,9 5,5 - - 26 14 - - S 1021,6 10 0 0,0
11.12.2018 22:00:00 6,9 5,5 - - 24 13 - - SSE 1021,1 15 0 0,0
11.12.2018 21:00:00 7,5 6,0 - - 28 15 - - SSE 1021,0 10 0 0,0
11.12.2018 20:00:00 7,6 6,3 - - 34 18 - - SE 1020,9 11 0 0,0
11.12.2018 19:00:00 7,8 5,9 - - 28 15 - - SE 1021,0 10 0 0,0
11.12.2018 18:00:00 8,0 6,0 - - 26 14 - - SSE 1021,4 10 0 0,0
11.12.2018 17:00:00 7,8 6,2 - - 24 13 - - SSE 1021,8 10 0 0,0
11.12.2018 16:00:00 7,9 6,5 - - 22 12 - - SSE 1022,2 10 0 0,0
11.12.2018 15:00:00 8,1 6,9 - - 22 12 - - SSE 1022,6 10 0 -
11.12.2018 14:00:00 8,7 7,3 - - 18 10 - - S 1023,1 13 0 0,0
11.12.2018 13:00:00 8,9 7,5 - - 24 13 - - SSE 1023,6 16 12 0,0
11.12.2018 12:00:00 8,8 7,8 - - 22 12 - - SSE 1023,9 11 6 0,0
11.12.2018 11:00:00 8,5 7,8 - - 22 12 - - SSE 1024,7 10 0 0,0
11.12.2018 10:00:00 9,1 8,0 - - 18 10 - - SSE 1025,2 11 24 0,0
11.12.2018 09:00:00 8,8 8,0 10,7 11,4 15 8 - - SSE 1025,3 10 0 0,0
11.12.2018 08:00:00 8,2 7,9 - - 13 7 - - SSE 1025,3 10 0 0,0
11.12.2018 07:00:00 7,2 6,6 - - 8 4 - - SE 1025,4 10 0 0,0
11.12.2018 06:00:00 7,3 6,6 - - 9 5 - - ESE 1025,5 10 0 0,0
11.12.2018 05:00:00 7,2 6,7 - - 5 3 - - E 1025,9 10 0 0,0
11.12.2018 04:00:00 7,4 6,7 - - 5 3 - - SE 1026,4 10 0 0,0
11.12.2018 03:00:00 7,7 6,9 - - 4 2 - - S 1026,9 10 0 0,0
11.12.2018 02:00:00 7,6 6,5 - - 4 2 - - SSW 1027,3 10 0 0,0
11.12.2018 01:00:00 8,1 6,4 - - 4 2 - - ESE 1027,8 10 0 0,0
11.12.2018 00:00:00 8,0 6,3 - - 5 3 - - S 1028,5 10 - 0,0
10.12.2018 23:00:00 8,4 6,4 - - 0 0 - - N 1028,8 14 0 0,0
10.12.2018 22:00:00 7,7 6,3 - - 4 2 - - S 1029,1 10 0 0,0
10.12.2018 21:00:00 7,2 5,3 - - 2 1 - - WNW 1029,1 10 0 0,0
10.12.2018 20:00:00 6,8 5,1 - - 2 1 - - NW 1029,4 10 0 0,0
10.12.2018 19:00:00 7,6 5,6 - - 5 3 - - N 1029,7 10 0 0,0
10.12.2018 18:00:00 7,9 5,5 - - 5 3 - - N 1029,9 10 0 0,0
10.12.2018 17:00:00 8,1 5,6 - - 5 3 - - NNW 1029,7 10 0 0,0
10.12.2018 16:00:00 9,7 6,3 - - 8 4 - - NW 1029,9 10 0 0,0
10.12.2018 15:00:00 10,6 6,1 - - 13 7 - - WNW 1030,1 10 0 0,0
10.12.2018 14:00:00 10,6 5,7 - - 13 7 - - WNW 1030,1 10 0 0,0
10.12.2018 13:00:00 10,9 5,5 - - 15 8 - - WNW 1030,3 26 42 0,0
10.12.2018 12:00:00 11,2 5,7 - - 16 9 - - NW 1030,5 10 30 0,0
10.12.2018 11:00:00 10,9 5,6 - - 18 10 - - NW 1031,0 30 42 0,0
10.12.2018 10:00:00 9,7 5,7 - - 15 8 - - NW 1030,7 10 0 0,0
10.12.2018 09:00:00 9,9 5,8 11,2 11,5 15 8 - - NW 1030,3 10 6 0,0
10.12.2018 08:00:00 8,8 5,3 - - 15 8 - - NW 1030,0 10 0 0,0
10.12.2018 07:00:00 9,1 5,1 - - 18 10 - - NW 1029,7 10 0 0,0
10.12.2018 06:00:00 9,3 5,2 - - 18 10 - - NW 1029,5 10 0 0,0
10.12.2018 05:00:00 9,2 5,0 - - 22 12 - - NW 1029,2 10 0 0,0
10.12.2018 04:00:00 9,6 5,4 - - 28 15 - - WNW 1028,6 10 0 0,0
10.12.2018 03:00:00 9,6 5,7 - - 24 13 - - NW 1028,6 10 0 0,0
10.12.2018 02:00:00 9,7 5,6 - - 22 12 - - NW 1028,3 10 0 0,0
10.12.2018 01:00:00 10,0 5,6 - - 22 12 46 25 WNW 1028,0 10 0 0,0
10.12.2018 00:00:00 10,0 5,5 - - 24 13 48 26 NW 1027,9 10 - 0,0
09.12.2018 23:00:00 10,1 6,1 - - 29 16 48 26 WNW 1027,1 10 0 0,0
09.12.2018 22:00:00 10,4 6,2 - - 31 17 57 31 WNW 1026,7 10 0 0,0
09.12.2018 21:00:00 10,5 6,1 - - 34 18 57 31 WNW 1026,1 10 0 0,0
09.12.2018 20:00:00 10,4 7,0 - - 34 18 61 33 NW 1025,3 10 0 0,0
09.12.2018 19:00:00 10,4 7,0 - - 37 20 54 29 NW 1024,5 11 0 0,0
09.12.2018 18:00:00 10,5 7,0 - - 34 18 61 33 WNW 1023,6 10 0 0,0
09.12.2018 17:00:00 10,6 8,0 - - 31 17 63 34 WNW 1022,6 10 0 0,0
09.12.2018 16:00:00 11,0 7,2 - - 35 19 65 35 WNW 1021,4 10 0 0,0
09.12.2018 15:00:00 11,6 6,7 - - 39 21 72 39 WNW 1020,1 10 6 0,0
09.12.2018 14:00:00 11,4 7,5 - - 41 22 78 42 WNW 1018,8 11 0 0,0
09.12.2018 13:00:00 11,5 7,5 - - 46 25 87 47 WNW 1017,3 8 0 0,0
09.12.2018 12:00:00 11,4 8,0 - - 48 26 81 44 WNW 1016,4 10 6 0,4
09.12.2018 11:00:00 11,7 8,3 - - 48 26 80 43 W 1015,4 10 6 0,0
09.12.2018 10:00:00 11,5 8,0 - - 55 30 94 51 W 1014,4 10 6 0,2
09.12.2018 09:00:00 11,0 8,2 11,7 11,7 54 29 85 46 W 1013,8 10 0 0,2
09.12.2018 08:00:00 10,7 8,7 - - 57 31 89 48 W 1012,9 6 0 0,4
09.12.2018 07:00:00 10,8 7,8 - - 55 30 89 48 W 1012,3 10 0 0,2
09.12.2018 06:00:00 9,9 8,3 - - 57 31 93 50 W 1011,8 7 0 0,4
09.12.2018 05:00:00 9,8 8,2 - - 57 31 98 53 W 1011,3 6 0 2,2
09.12.2018 04:00:00 11,0 6,0 - - 55 30 87 47 W 1010,9 10 0 0,0
09.12.2018 03:00:00 11,0 6,4 - - 57 31 85 46 W 1011,3 10 0 0,2
09.12.2018 02:00:00 10,6 5,9 - - 54 29 94 51 W 1010,9 10 0 0,0
09.12.2018 01:00:00 10,9 5,5 - - 48 26 87 47 W 1010,1 10 0 0,0
09.12.2018 00:00:00 11,1 6,0 - - 57 31 87 47 W 1009,9 10 - 0,0
08.12.2018 23:00:00 11,1 6,8 - - 52 28 93 50 W 1009,7 10 0 0,2
08.12.2018 22:00:00 10,1 8,6 - - 54 29 83 45 W 1009,3 1,4 0 1,2
08.12.2018 21:00:00 10,5 8,8 - - 57 31 94 51 W 1009,0 5 0 0,2
08.12.2018 20:00:00 12,0 9,0 - - 63 34 104 56 W 1008,8 10 0 0,2
08.12.2018 19:00:00 12,0 9,5 - - 57 31 80 43 W 1008,8 5 0 0,0
08.12.2018 18:00:00 12,3 9,4 - - 57 31 85 46 W 1008,9 10 0 0,0
08.12.2018 17:00:00 12,2 10,6 - - 54 29 80 43 W 1008,9 6 0 0,0
08.12.2018 16:00:00 12,4 11,5 - - 48 26 91 49 W 1008,9 10 0 0,8
08.12.2018 15:00:00 12,1 11,7 - - 59 32 72 39 WSW 1009,1 4,0 0 0,0
08.12.2018 14:00:00 11,9 11,2 - - 46 25 72 39 WSW 1010,1 13 0 0,0
08.12.2018 13:00:00 11,1 11,0 - - 44 24 68 37 WSW 1011,6 3,2 0 0,2
08.12.2018 12:00:00 11,1 10,7 - - 54 29 67 36 WSW 1012,6 6 0 0,2
08.12.2018 11:00:00 10,9 10,4 - - 42 23 61 33 WSW 1014,1 5 0 0,2
08.12.2018 10:00:00 11,3 9,5 - - 44 24 61 33 W 1014,6 10 0 0,0
08.12.2018 09:00:00 11,4 8,1 11,7 11,7 42 23 70 38 W 1015,0 10 0 0,0
08.12.2018 08:00:00 11,3 7,2 - - 48 26 76 41 W 1015,3 10 0 0,0
08.12.2018 07:00:00 11,1 7,0 - - 50 27 74 40 W 1015,0 10 0 0,2
08.12.2018 06:00:00 11,1 6,9 - - 46 25 78 42 W 1014,4 10 0 0,0
08.12.2018 05:00:00 10,9 6,5 - - 52 28 80 43 W 1014,1 10 0 0,0
08.12.2018 04:00:00 10,9 6,6 - - 50 27 81 44 W 1014,0 10 0 0,0
08.12.2018 03:00:00 10,2 6,9 - - 52 28 83 45 W 1014,0 10 0 0,0
08.12.2018 02:00:00 10,4 6,5 - - 55 30 80 43 W 1013,9 10 0 0,6
08.12.2018 01:00:00 10,4 6,0 - - 52 28 83 45 W 1014,3 10 0 0,0
08.12.2018 00:00:00 10,4 6,0 - - 55 30 80 43 W 1014,4 10 - 0,4
07.12.2018 23:00:00 9,8 6,8 - - 41 22 80 43 W 1014,2 10 0 0,4
07.12.2018 22:00:00 10,2 5,5 - - 44 24 78 42 W 1014,4 10 0 0,2
07.12.2018 21:00:00 9,3 6,7 - - 48 26 87 47 W 1014,3 10 0 0,0
07.12.2018 20:00:00 10,0 5,0 - - 46 25 76 41 W 1013,9 10 0 0,2
07.12.2018 19:00:00 9,0 5,4 - - 44 24 94 51 W 1013,6 10 0 0,2
07.12.2018 18:00:00 10,0 4,6 - - 48 26 78 42 W 1012,7 10 0 0,0
07.12.2018 17:00:00 9,5 4,1 - - 50 27 74 40 W 1011,9 10 0 0,0
07.12.2018 16:00:00 8,8 5,0 - - 42 23 76 41 W 1011,1 10 6 0,4
07.12.2018 15:00:00 9,4 5,0 - - 44 24 80 43 W 1010,1 10 18 0,0
07.12.2018 14:00:00 8,3 6,1 - - 50 27 93 50 WNW 1009,4 10 6 0,4
07.12.2018 13:00:00 9,1 6,0 - - 50 27 76 41 W 1008,1 4,8 36 0,0
07.12.2018 12:00:00 10,2 7,0 - - 42 23 74 40 W 1007,6 10 6 0,0
07.12.2018 11:00:00 10,1 7,1 - - 39 21 63 34 W 1007,4 10 0 1,0
07.12.2018 10:00:00 9,9 9,1 - - 34 18 61 33 W 1007,1 7 0 2,2
07.12.2018 09:00:00 11,8 11,5 12,2 11,7 37 20 63 34 SSW 1005,5 3,0 0 2,2

tt = temperature
td = dewpoint
tt -20cm = temperature -20cm
tt -100cm = temperature -100cm
ff = wind speed
fx = gusts
dd = wind direction
ppp = reduced air pressure
vv = visibility
sd = sunshine duration
rr = precipitation

Next stations